When you browse on this site, cookies collect data to enhance your experience and personalize the content and advertising you see.
Visit our Privacy Policy to learn more. By continuing to use the site, you agree to this use of cookies and data.
  • în România
  • Lista ţărilor
  • Pe 7 zile
  • Temperatura apei
  • Hartă satelitară
  • Meteo pe hartă
  • Widget-uri
  • user-avatar
    Intrare

    Meteo pe oră la Trenton

    Astăzi, 21 Aprilie, Duminică

    Timp Temperatura Precipitaţii Vânt Presiune Umiditate
    00:00 +15°C° 0 mm 2 m/s 757 mmHg 70%
    01:00 +15°C° 0 mm 1 m/s 757 mmHg 73%
    02:00 +15°C° 0 mm 1 m/s 757 mmHg 74%
    03:00 +15°C° 0 mm 2 m/s 757 mmHg 75%
    04:00 +15°C° 0 mm 2 m/s 757 mmHg 76%
    05:00 +15°C° 0 mm 2 m/s 758 mmHg 74%
    06:00 +14°C° 0 mm 3 m/s 758 mmHg 72%
    07:00 +14°C° 0 mm 3 m/s 759 mmHg 70%
    08:00 +17°C° 0 mm 3 m/s 759 mmHg 62%
    09:00 +18°C° 0 mm 3 m/s 759 mmHg 53%
    10:00 +19°C° 0 mm 3 m/s 759 mmHg 45%
    11:00 +20°C° 0 mm 3 m/s 759 mmHg 42%
    12:00 +21°C° 0 mm 2 m/s 760 mmHg 39%
    13:00 +23°C° 0 mm 2 m/s 760 mmHg 35%
    14:00 +23°C° 0 mm 2 m/s 759 mmHg 37%
    15:00 +23°C° 0 mm 2 m/s 759 mmHg 38%
    16:00 +23°C° 0 mm 2 m/s 759 mmHg 39%
    17:00 +20°C° 0 mm 2 m/s 760 mmHg 43%
    18:00 +19°C° 0 mm 2 m/s 760 mmHg 48%
    19:00 +18°C° 0 mm 2 m/s 760 mmHg 52%
    20:00 +17°C° 0 mm 2 m/s 761 mmHg 56%
    21:00 +16°C° 0 mm 2 m/s 761 mmHg 60%
    22:00 +15°C° 0 mm 2 m/s 761 mmHg 64%
    23:00 +15°C° 0 mm 2 m/s 761 mmHg 66%

    Mâine, 22 Aprilie, Luni

    Timp Temperatura Precipitaţii Vânt Presiune Umiditate
    00:00 +14°C° 0 mm 1 m/s 761 mmHg 68%
    01:00 +14°C° 0 mm 1 m/s 761 mmHg 70%
    02:00 +14°C° 0 mm 1 m/s 761 mmHg 71%
    03:00 +13°C° 0 mm 1 m/s 761 mmHg 72%
    04:00 +13°C° 0 mm 1 m/s 761 mmHg 73%
    05:00 +14°C° 0 mm 1 m/s 761 mmHg 71%
    06:00 +14°C° 0 mm 1 m/s 762 mmHg 70%
    07:00 +15°C° 0 mm 1 m/s 762 mmHg 68%
    08:00 +16°C° 0 mm 1 m/s 762 mmHg 63%
    09:00 +19°C° 0 mm 1 m/s 762 mmHg 58%
    10:00 +19°C° 0 mm 2 m/s 762 mmHg 53%
    11:00 +20°C° 0 mm 2 m/s 762 mmHg 49%
    12:00 +23°C° 0 mm 2 m/s 761 mmHg 45%
    13:00 +24°C° 0 mm 2 m/s 761 mmHg 40%
    14:00 +24°C° 0.1 mm 2 m/s 761 mmHg 44%
    15:00 +23°C° 0.1 mm 2 m/s 760 mmHg 48%
    16:00 +23°C° 0.1 mm 2 m/s 760 mmHg 52%
    17:00 +21°C° 0.7 mm 2 m/s 760 mmHg 56%
    18:00 +20°C° 0.7 mm 2 m/s 760 mmHg 61%
    19:00 +19°C° 0.7 mm 2 m/s 760 mmHg 66%
    20:00 +18°C° 0 mm 2 m/s 761 mmHg 69%
    21:00 +17°C° 0 mm 3 m/s 761 mmHg 72%
    22:00 +17°C° 0 mm 3 m/s 761 mmHg 75%
    23:00 +16°C° 0 mm 3 m/s 761 mmHg 77%

    Poimâine, 23 Aprilie, Marţi

    Timp Temperatura Precipitaţii Vânt Presiune Umiditate
    00:00 +14°C° 0 mm 3 m/s 761 mmHg 80%
    01:00 +15°C° 0 mm 2 m/s 761 mmHg 82%
    02:00 +15°C° 0 mm 2 m/s 761 mmHg 83%
    03:00 +14°C° 0 mm 2 m/s 761 mmHg 84%
    04:00 +14°C° 0 mm 1 m/s 761 mmHg 85%
    05:00 +15°C° 0 mm 2 m/s 761 mmHg 82%
    06:00 +15°C° 0 mm 2 m/s 761 mmHg 79%
    07:00 +16°C° 0 mm 2 m/s 762 mmHg 76%
    08:00 +19°C° 0 mm 1 m/s 762 mmHg 68%
    09:00 +22°C° 0 mm 1 m/s 762 mmHg 60%
    10:00 +22°C° 0 mm 0 m/s 762 mmHg 52%
    11:00 +25°C° 0 mm 1 m/s 761 mmHg 47%
    12:00 +26°C° 0 mm 2 m/s 761 mmHg 43%
    13:00 +27°C° 0 mm 2 m/s 760 mmHg 38%
    14:00 +27°C° 0 mm 3 m/s 759 mmHg 38%
    15:00 +27°C° 0 mm 3 m/s 759 mmHg 38%
    16:00 +28°C° 0 mm 3 m/s 758 mmHg 38%
    17:00 +26°C° 0 mm 3 m/s 758 mmHg 43%
    18:00 +25°C° 0 mm 3 m/s 757 mmHg 49%
    19:00 +22°C° 0 mm 3 m/s 757 mmHg 54%
    20:00 +22°C° 0 mm 3 m/s 757 mmHg 57%
    21:00 +21°C° 0 mm 4 m/s 757 mmHg 60%
    22:00 +20°C° 0 mm 4 m/s 757 mmHg 63%
    23:00 +20°C° 0 mm 4 m/s 756 mmHg 61%

    24 Aprilie, Miercuri

    Timp Temperatura Precipitaţii Vânt Presiune Umiditate
    00:00 +20°C° 0 mm 5 m/s 756 mmHg 59%
    01:00 +20°C° 0 mm 5 m/s 755 mmHg 56%
    02:00 +20°C° 0 mm 5 m/s 755 mmHg 59%
    03:00 +20°C° 0 mm 4 m/s 755 mmHg 62%
    04:00 +20°C° 0 mm 4 m/s 754 mmHg 65%
    05:00 +20°C° 0 mm 4 m/s 755 mmHg 67%
    06:00 +20°C° 0 mm 5 m/s 755 mmHg 69%
    07:00 +20°C° 0 mm 5 m/s 755 mmHg 71%
    08:00 +19°C° 0 mm 5 m/s 756 mmHg 66%
    09:00 +19°C° 0 mm 5 m/s 756 mmHg 61%
    10:00 +19°C° 0 mm 5 m/s 756 mmHg 56%
    11:00 +19°C° 0 mm 5 m/s 756 mmHg 51%
    12:00 +20°C° 0 mm 5 m/s 756 mmHg 47%
    13:00 +21°C° 0 mm 4 m/s 756 mmHg 43%
    14:00 +21°C° 0 mm 5 m/s 756 mmHg 41%
    15:00 +21°C° 0 mm 5 m/s 756 mmHg 39%
    16:00 +22°C° 0 mm 5 m/s 756 mmHg 37%
    17:00 +21°C° 0 mm 4 m/s 756 mmHg 39%
    18:00 +19°C° 0 mm 4 m/s 757 mmHg 41%
    19:00 +18°C° 0 mm 3 m/s 758 mmHg 44%
    20:00 +17°C° 0 mm 3 m/s 758 mmHg 47%
    21:00 +15°C° 0 mm 4 m/s 759 mmHg 51%
    22:00 +14°C° 0 mm 4 m/s 759 mmHg 55%
    23:00 +13°C° 0 mm 4 m/s 759 mmHg 57%

    25 Aprilie, Joi

    Timp Temperatura Precipitaţii Vânt Presiune Umiditate
    00:00 +12°C° 0 mm 3 m/s 759 mmHg 58%
    01:00 +11°C° 0 mm 3 m/s 759 mmHg 60%
    02:00 +11°C° 0 mm 3 m/s 760 mmHg 62%
    03:00 +10°C° 0 mm 2 m/s 760 mmHg 63%
    04:00 +10°C° 0 mm 2 m/s 760 mmHg 65%
    05:00 +10°C° 0 mm 2 m/s 761 mmHg 63%
    06:00 +10°C° 0 mm 3 m/s 761 mmHg 61%
    07:00 +11°C° 0 mm 3 m/s 761 mmHg 59%
    08:00 +12°C° 0 mm 3 m/s 761 mmHg 53%
    09:00 +14°C° 0 mm 3 m/s 761 mmHg 47%
    10:00 +16°C° 0 mm 2 m/s 761 mmHg 41%
    11:00 +18°C° 0 mm 2 m/s 761 mmHg 38%
    12:00 +19°C° 0 mm 2 m/s 761 mmHg 34%
    13:00 +22°C° 0 mm 1 m/s 760 mmHg 30%
    14:00 +20°C° 0 mm 2 m/s 760 mmHg 34%
    15:00 +19°C° 0 mm 2 m/s 760 mmHg 38%
    16:00 +19°C° 0 mm 2 m/s 760 mmHg 41%
    17:00 +18°C° 0 mm 2 m/s 760 mmHg 45%
    18:00 +17°C° 0 mm 2 m/s 760 mmHg 49%
    19:00 +15°C° 0 mm 1 m/s 760 mmHg 53%
    20:00 +15°C° 0 mm 1 m/s 760 mmHg 57%
    21:00 +14°C° 0 mm 1 m/s 761 mmHg 61%
    22:00 +13°C° 0 mm 1 m/s 761 mmHg 64%
    23:00 +13°C° 0 mm 2 m/s 761 mmHg 65%

    26 Aprilie, Vineri

    Timp Temperatura Precipitaţii Vânt Presiune Umiditate
    00:00 +13°C° 0 mm 2 m/s 760 mmHg 66%
    01:00 +13°C° 0 mm 2 m/s 760 mmHg 66%
    02:00 +13°C° 0.1 mm 2 m/s 760 mmHg 68%
    03:00 +13°C° 0.1 mm 2 m/s 760 mmHg 70%
    04:00 +13°C° 0.1 mm 2 m/s 759 mmHg 72%
    05:00 +13°C° 1.4 mm 2 m/s 759 mmHg 76%
    06:00 +12°C° 1.4 mm 3 m/s 759 mmHg 81%
    07:00 +11°C° 1.4 mm 3 m/s 759 mmHg 85%
    08:00 +11°C° 1.9 mm 3 m/s 759 mmHg 85%
    09:00 +12°C° 1.9 mm 3 m/s 758 mmHg 86%
    10:00 +12°C° 1.9 mm 4 m/s 758 mmHg 86%
    11:00 +12°C° 2.3 mm 3 m/s 757 mmHg 88%
    12:00 +13°C° 2.3 mm 2 m/s 757 mmHg 89%
    13:00 +13°C° 2.3 mm 2 m/s 756 mmHg 91%
    14:00 +13°C° 0.7 mm 2 m/s 756 mmHg 91%
    15:00 +13°C° 0.7 mm 2 m/s 756 mmHg 92%
    16:00 +14°C° 0.7 mm 1 m/s 756 mmHg 92%
    17:00 +13°C° 0 mm 2 m/s 756 mmHg 91%
    18:00 +12°C° 0 mm 3 m/s 757 mmHg 90%
    19:00 +12°C° 0 mm 4 m/s 757 mmHg 89%
    20:00 +12°C° 0 mm 4 m/s 758 mmHg 87%
    21:00 +11°C° 0 mm 4 m/s 758 mmHg 86%
    22:00 +11°C° 0 mm 4 m/s 759 mmHg 85%
    23:00 +10°C° 0 mm 3 m/s 759 mmHg 85%
    Arată mai mult